Regional Weather Roundup
Issued by NWS

Home | Current Version | Previous Version | Graphics & Text | Print | Product List | Glossary On
Versions: 1 2 3 4 5 6 7 8 9 10 11 12 13 14 15 16 17 18 19 20 21 22 23 24 25 26 27 28 29 30 31 32 33 34 35 36 37 38 39 40 41 42 43 44 45 46 47 48 49 50
000
ASUS45 KBOI 270210
RWRID
WEATHER ROUNDUP FOR IDAHO
NATIONAL WEATHER SERVICE BOISE ID
800 PM MDT THU MAR 26 2015

NOTE: "FAIR" INDICATES FEW OR NO CLOUDS BELOW 12000 FEET
WITH NO SIGNIFICANT WEATHER AND/OR OBSTRUCTIONS TO VISIBILITY

IDZ012-014-270300-
SOUTHWEST IDAHO


CITY           SKY/WX    TMP DP  RH WIND       PRES   REMARKS
BOISE          CLEAR     62  37  39 NW3       30.25F
CALDWELL       CLEAR     61  37  41 CALM      30.26F
MOUNTAIN HOME  CLEAR     59  42  52 NW8       30.26S
$$

IDZ016-017-270300-
SOUTHCENTRAL IDAHO


CITY           SKY/WX    TMP DP  RH WIND       PRES   REMARKS
BURLEY         CLEAR     54  34  46 W5        30.28S
JEROME         CLEAR     55  35  47 SW9       30.28F
TWIN FALLS     CLEAR     54  36  50 SW7       30.28F
$$

IDZ019>023-270300-
SOUTHEAST IDAHO


CITY           SKY/WX    TMP DP  RH WIND       PRES   REMARKS
IDAHO FALLS    PTCLDY    54  32  43 S7        30.30S
POCATELLO      CLEAR     54  33  45 SW9       30.30F
REXBURG        CLOUDY    54  32  43 SW10      30.29S
$$

IDZ006-010-011-018-031-032-270300-
CENTRAL IDAHO MOUNTAINS


CITY           SKY/WX    TMP DP  RH WIND       PRES   REMARKS
MCCALL         CLEAR     55  38  52 N3        30.29F
HAILEY         PTCLDY    54  39  58 SE5       30.30S
STANLEY          N/A     42  31  64 S3        30.35S
SALMON         CLEAR    N/A N/A N/A S3        30.27S
CHALLIS        PTCLDY    55  34  45 VRB5      30.28R
$$

IDZ002-004-006-007-026-270300-
NORTHERN IDAHO


CITY           SKY/WX    TMP DP  RH WIND       PRES   REMARKS
LEWISTON       CLEAR     66  46  48 NE6       30.18F
LOWELL           N/A     52  49  89 N3        30.25S
COEUR D`ALENE  MOCLDY    57  45  62 SE5       30.23F
MULLAN PASS    PTCLDY    42  37  82 SW6       30.30F
$$



USA.gov is the U.S. government's official web portal to all federal, state and local government web resources and services.